NOAA 16 DEB, 41069

Orbit data source: Space-Track

NOAA 16 DEB, 41069 is space debris in SSO originally from a launch on Thu, 21 Sep 2000 UTC launched from the Air Force Western Test Range (AFWTR). Debris objects in space refer to the collection of defunct objects orbiting the Earth. Examples of debris include non-operational satellites, rocket bodies, and fragments generated from explosions, collisions, or faulty payload assembly.

Loading next visibility...
Identifier
41069, 2000-055AC
Orbit
SSO
Country
Flag of USUS
Related business
Manufacturer
Unknown
Mission
Spacecraft
Bus & Motor
Unknown
Mass
Unknown
Launch date (UTC)
2000-09-21 (26 years ago)
Launch vehicle
Unknown
Launch site
Air Force Western Test Range (AFWTR)
Object type
Payload
Rocket body
Debris
Shape & HBR
Unknown shape, 0.1 m
Radar Cross Section
Small (<0.1 m²)

Expand to show TLE details & history
Last TLE update: 8 hours ago

TLE from 8 hours ago
0 NOAA 16 DEB
1 41069U 00055AC  26127.25446456  .00001327  00000-0  38411-3 0  9997
2 41069  98.5980 239.7086 0106718 301.3817  57.6967 14.42980065546725
Epoch: 2026-05-07T06:06Z
TLE epoch observation values (Epoch: 2026-05-07T06:06:25.737Z)
Latitude
0.00004°
Longitude
-77.00189°
Altitude
711.552 km
Speed
7.521 km/s
True Right ascension
15h 58m 50s
True Declination
0° 00' 00"
Sunlit
Object was in full shadow at epoch
Visualization orbit readout
Latitude
Unknown
Longitude
Unknown
Altitude
Unknown
Speed
Unknown
Apparent Right ascension
Unknown
Apparent Declination
Unknown
Sunlit
N/A
Visualization observer readout
Local Sidereal Time
22:19:57
Azimuth
Unknown
Elevation
Unknown
Doppler factor
Unknown
Orbital elements
Apogee altitude
821.816 km
Perigee altitude
669.766 km
Semi-major axis
7,123.928 km
Eccentricity
0.01067
Inclination
98.598°
RAAN
239.7086°
Arg. of periapsis
301.3817°
True anomaly
58.73769°
Mean anomaly
57.6967°
Eccentric anomaly
58.21646°
Mean motion
3.60964 °/min
Orbital period
99.73 mins
BSTAR
0.00038411
Loading maneuver chart data...
Computing Atmospheric mass density...

Documentation

Showing up to 5 results
|